Wind_Speed
42 41 41 41 40 40 40 40 39 39 38 38 37 36 35 35 33 33 33 33 32 32 31 31 30 30 30 29 29 29 29 29 29 30 30 30 30 30 30 30 31 31 31
45 44 43 43 43 42 42 42 42 41 41 40 39 38 37 37 36 35 35 35 35 34 33 33 32 32 31 31 31 31 31 31 31 31 31 31 31 31 31 32 32 32 32
47 46 46 45 45 45 45 44 44 44 43 42 41 40 39 38 38 38 37 37 37 37 36 35 34 34 33 33 33 33 33 33 32 32 32 32 32 32 33 33 33 33 33
49 48 48 47 47 47 47 46 46 46 45 44 44 43 41 41 40 40 40 38 38 38 38 37 37 36 35 34 34 34 34 34 34 34 34 34 33 34 34 34 34 34 35
51 51 50 50 49 49 49 48 48 48 47 47 46 45 44 43 42 42 41 40 39 39 39 38 38 38 37 36 36 36 36 36 36 36 35 35 35 35 35 35 35 36 36
53 53 53 52 52 52 51 51 50 50 50 50 49 48 47 46 45 44 43 42 41 40 40 40 39 39 39 39 38 38 38 38 38 37 37 37 36 36 36 36 37 37 38
55 55 54 54 54 54 54 53 53 52 52 52 51 50 49 49 48 46 45 44 43 42 42 41 41 41 41 41 40 40 40 39 39 39 39 38 38 37 37 37 38 38 39
56 56 56 55 55 55 55 55 55 54 53 53 53 53 52 50 50 48 47 46 44 44 44 43 42 42 42 43 42 42 41 41 40 40 40 40 39 39 39 38 39 39 40
57 57 57 56 56 56 56 56 56 56 55 54 54 53 53 51 51 50 49 48 46 46 46 45 44 43 43 43 43 43 42 42 42 41 41 41 41 40 40 40 40 40 41
57 57 57 57 57 57 56 56 56 56 56 55 54 55 54 53 53 52 51 50 49 48 48 47 46 45 44 44 44 43 44 43 43 42 42 42 42 41 41 41 41 41 42
56 56 57 56 57 57 57 57 57 57 57 56 56 56 56 55 55 54 53 53 51 50 50 50 49 48 47 46 46 45 44 44 44 44 43 43 42 42 42 42 42 42 43
56 56 56 56 57 57 57 57 58 58 57 58 57 58 58 58 57 56 55 55 54 52 51 52 51 50 50 49 48 47 46 46 46 45 45 44 43 43 43 43 43 43 43
56 56 56 56 56 57 57 58 58 58 58 58 58 59 59 60 59 57 57 56 56 54 53 52 52 52 52 51 49 48 47 47 47 46 45 45 45 43 43 44 44 44 44
57 57 57 56 56 57 57 58 58 59 60 59 59 59 59 59 59 57 57 57 57 56 54 53 52 52 52 51 50 49 48 47 47 46 46 45 45 44 43 43 44 44 44
56 56 55 55 56 56 56 56 58 59 60 59 59 59 59 59 58 57 57 56 56 56 54 52 52 51 51 51 49 49 48 47 46 46 46 45 45 45 44 43 43 44 44
54 54 54 54 54 55 54 55 56 57 58 59 58 59 59 59 59 57 57 56 56 57 55 53 52 51 51 50 49 49 48 46 45 45 46 46 46 46 45 44 44 44 44
51 51 52 52 52 53 53 55 56 56 57 58 57 58 58 58 59 57 57 57 57 56 56 54 53 51 50 50 49 49 48 47 46 45 44 45 45 45 45 44 44 44 44
50 50 52 52 52 52 53 54 55 55 56 56 56 57 57 57 58 56 55 55 55 54 54 54 52 52 51 50 49 48 48 47 46 45 45 45 44 44 45 44 45 44 44
49 49 50 51 51 52 52 52 54 54 55 55 55 55 55 55 55 54 53 52 53 53 53 53 52 51 50 50 49 48 48 48 47 46 46 45 44 44 44 44 45 44 44
48 48 49 50 51 50 50 51 52 52 53 53 53 53 53 53 51 50 50 50 50 50 50 50 51 49 48 48 48 48 47 48 46 45 45 45 45 45 44 43 44 43 44
46 48 48 49 49 49 49 50 51 51 51 51 50 51 50 50 48 48 49 49 48 49 48 48 48 48 47 46 47 47 47 48 47 45 45 45 45 44 44 43 42 42 42
45 45 45 45 46 47 47 48 48 48 48 48 47 47 47 47 47 46 47 47 47 48 47 46 46 46 46 46 46 46 46 47 46 45 45 45 45 44 42 42 42 41 41
42 42 42 42 43 43 44 45 46 46 46 45 44 44 45 45 45 45 44 46 46 46 46 46 45 45 46 45 45 45 45 45 45 45 45 44 44 43 42 41 41 40 40
39 40 40 40 40 40 41 42 43 43 42 42 42 43 43 43 45 45 45 45 45 44 43 44 44 44 44 44 43 43 43 43 43 43 43 42 42 41 40 40 39 39 39
37 38 38 38 38 38 39 40 41 41 40 40 41 41 41 42 43 44 44 44 43 41 42 43 43 42 42 42 43 42 41 41 40 40 40 40 39 39 39 38 37 37 37
36 37 37 38 37 37 37 38 38 39 39 39 40 40 41 42 41 41 42 42 42 42 42 42 42 42 42 42 42 42 40 39 39 38 37 38 37 37 37 36 35 35 36
Wind_Direction
260 261 261 262 262 263 264 264 264 263 264 264 264 265 267 267 268 269 269 270 271 273 274 274 275 276 277 279 281 283 285 287 289 290 291 291 292 293 295 297 298 299 301
261 262 262 262 262 262 263 263 264 264 263 263 263 264 265 267 267 268 269 269 270 271 273 273 274 276 277 278 280 281 284 286 288 289 290 290 291 292 294 296 297 298 300
261 262 263 263 263 263 263 263 263 264 263 263 263 263 264 265 267 267 268 268 269 270 271 272 273 274 276 278 279 281 282 284 286 288 289 289 289 291 293 294 296 297 298
262 262 263 263 263 263 264 263 262 262 263 263 263 263 263 264 266 266 266 266 268 269 270 271 272 273 275 276 278 280 282 283 284 286 287 288 288 290 291 293 294 296 297
262 262 263 263 263 263 264 263 262 262 262 263 262 262 263 264 265 266 266 266 267 268 269 269 271 272 273 276 277 279 281 282 284 285 286 286 287 289 290 292 293 294 296
262 262 262 262 263 263 263 263 262 262 262 262 262 262 262 263 263 264 265 265 266 267 269 269 270 272 273 275 276 278 280 281 283 284 284 285 286 287 289 290 292 293 294
261 261 262 262 262 262 262 262 262 262 262 262 262 261 261 262 262 263 264 264 265 266 268 269 270 271 272 274 276 277 279 280 282 282 282 283 284 286 287 289 291 292 293
261 261 262 261 261 261 261 261 261 261 261 261 261 261 260 260 262 262 263 264 264 266 267 268 269 271 272 273 275 277 278 279 280 281 281 281 283 284 286 288 289 291 293
262 262 262 261 261 261 261 260 260 260 260 260 259 260 260 260 261 261 261 263 264 266 266 266 268 270 272 272 274 275 277 278 279 280 280 280 281 282 284 286 288 291 293
261 262 261 261 260 260 260 260 259 259 259 258 258 259 259 260 260 260 260 261 263 264 266 266 267 268 270 271 272 273 275 277 278 279 279 280 280 281 283 285 287 290 292
262 262 261 261 260 259 259 259 258 258 258 258 258 258 258 258 259 261 260 260 262 264 265 265 266 267 268 271 272 272 273 275 276 277 278 279 280 281 282 284 286 289 291
262 262 261 261 260 259 258 258 257 257 257 257 257 258 258 258 259 260 261 260 261 263 264 265 265 265 266 268 270 271 272 273 274 276 277 278 279 280 282 283 286 288 290
263 263 262 261 260 259 258 257 257 257 257 257 258 258 258 258 258 259 260 260 261 262 263 265 265 265 265 267 268 271 272 273 273 274 276 278 279 279 281 283 285 287 289
263 262 261 261 260 259 258 259 258 257 257 257 258 258 258 258 258 259 259 260 261 261 262 263 264 265 265 266 268 269 270 271 273 274 276 277 278 279 280 283 286 287 289
264 262 261 261 260 259 259 260 260 258 258 257 257 257 257 257 257 259 259 260 261 261 261 262 263 264 265 266 267 268 269 270 271 273 275 277 278 279 279 281 284 286 288
265 263 261 261 261 260 259 261 261 259 258 258 258 258 257 257 257 258 259 260 261 262 261 261 262 262 263 264 266 267 268 269 270 272 274 276 278 279 280 280 282 285 287
266 264 261 261 261 260 260 261 260 260 259 258 257 258 258 257 256 258 259 260 260 261 261 261 261 261 263 263 264 266 267 268 269 271 273 275 278 279 280 281 282 285 287
265 263 262 261 260 260 260 261 261 261 260 258 258 258 258 257 257 258 260 259 259 259 259 260 261 261 263 263 264 265 266 267 269 270 272 275 277 278 279 281 283 284 286
266 264 262 261 261 260 260 261 261 260 259 259 258 258 257 256 256 257 258 257 257 257 259 260 261 262 263 263 265 265 266 267 268 270 272 274 276 277 279 280 283 284 285
267 264 262 262 261 260 261 261 260 260 259 259 258 257 257 255 256 256 256 255 256 257 258 260 260 261 263 264 265 266 266 267 269 270 271 273 275 276 277 279 282 283 284
267 264 262 261 261 261 261 261 260 260 259 259 258 256 255 254 256 256 255 255 256 256 257 259 260 261 262 265 265 267 268 268 268 269 271 272 275 276 277 279 282 283 284
268 264 261 262 263 262 262 261 260 259 259 259 258 256 254 254 255 255 256 255 256 256 255 257 259 261 261 265 265 266 268 269 268 268 270 271 274 275 276 279 282 284 284
268 266 264 264 263 262 260 259 259 259 258 258 258 256 254 254 255 255 256 255 255 255 256 257 258 260 262 264 266 266 267 268 267 267 269 270 272 274 276 278 282 283 283
269 267 265 265 263 261 260 259 258 258 257 256 256 255 254 254 254 255 255 254 254 254 254 256 258 260 262 264 265 265 266 266 266 267 269 271 271 272 274 277 280 281 283
268 266 267 265 262 259 258 257 257 257 255 255 255 253 253 253 254 255 255 253 251 252 254 255 258 259 261 263 264 265 265 266 267 269 270 271 271 272 274 276 279 281 282
268 267 266 264 262 260 259 258 257 256 254 254 254 254 254 254 253 254 253 252 251 252 255 256 257 259 260 261 263 264 265 266 268 269 269 270 270 272 273 274 277 280 281
Height
5795 5797 5799 5800 5802 5803 5804 5805 5806 5808 5808 5809 5810 5811 5812 5813 5813 5814 5815 5816 5816 5816 5816 5816 5817 5816 5816 5815 5815 5814 5813 5812 5810 5809 5807 5806 5804 5802 5800 5798 5795 5793 5790
5786 5788 5790 5791 5793 5794 5795 5796 5797 5799 5800 5801 5802 5804 5804 5805 5806 5807 5808 5808 5809 5809 5810 5810 5810 5810 5809 5809 5808 5807 5807 5805 5804 5803 5801 5799 5798 5796 5794 5791 5789 5787 5784
5776 5778 5780 5781 5783 5784 5785 5787 5788 5789 5791 5792 5794 5795 5796 5797 5798 5799 5800 5800 5801 5802 5802 5802 5803 5803 5803 5802 5801 5801 5800 5799 5797 5796 5794 5793 5791 5789 5787 5785 5783 5780 5777
5765 5767 5769 5770 5772 5773 5775 5776 5778 5780 5781 5783 5784 5786 5787 5788 5789 5790 5791 5792 5793 5794 5794 5795 5795 5795 5795 5795 5794 5793 5793 5791 5790 5789 5787 5786 5784 5782 5780 5778 5776 5773 5770
5753 5755 5757 5759 5760 5762 5763 5765 5767 5769 5770 5772 5774 5775 5777 5778 5779 5780 5782 5783 5784 5785 5786 5786 5787 5787 5787 5787 5786 5786 5785 5784 5783 5781 5780 5778 5777 5775 5773 5771 5768 5766 5763
5740 5742 5745 5747 5748 5750 5751 5753 5755 5757 5759 5761 5762 5764 5766 5767 5769 5770 5772 5773 5775 5776 5777 5777 5778 5778 5778 5778 5778 5777 5777 5776 5775 5773 5772 5771 5769 5767 5765 5763 5761 5758 5755
5726 5729 5731 5733 5735 5737 5739 5740 5742 5744 5746 5748 5750 5752 5754 5756 5758 5760 5762 5763 5765 5766 5767 5768 5768 5769 5769 5769 5769 5768 5768 5767 5766 5765 5763 5762 5761 5759 5757 5755 5752 5750 5747
5712 5714 5716 5719 5721 5723 5725 5727 5729 5731 5733 5735 5737 5739 5742 5745 5747 5749 5751 5753 5754 5756 5757 5758 5759 5759 5760 5760 5759 5759 5758 5757 5757 5756 5754 5753 5752 5750 5748 5746 5744 5741 5738
5697 5699 5701 5703 5706 5708 5710 5713 5715 5717 5719 5722 5724 5726 5729 5732 5735 5738 5739 5741 5743 5745 5746 5747 5748 5749 5749 5750 5749 5749 5748 5748 5747 5746 5745 5744 5742 5741 5739 5737 5735 5732 5729
5682 5683 5686 5688 5690 5693 5695 5698 5700 5702 5705 5708 5711 5713 5716 5719 5722 5725 5728 5730 5731 5733 5735 5736 5737 5738 5739 5739 5739 5738 5738 5738 5737 5736 5735 5733 5732 5731 5729 5728 5725 5723 5720
5667 5668 5670 5672 5675 5677 5680 5682 5685 5687 5690 5693 5697 5699 5702 5705 5707 5710 5714 5717 5719 5721 5723 5724 5725 5726 5727 5727 5728 5728 5727 5727 5726 5725 5724 5723 5722 5721 5719 5718 5716 5713 5710
5652 5654 5655 5657 5659 5662 5664 5667 5669 5672 5675 5678 5682 5684 5687 5690 5694 5696 5699 5703 5705 5708 5710 5711 5712 5713 5715 5715 5716 5716 5716 5716 5715 5714 5713 5712 5711 5710 5709 5707 5705 5703 5700
5637 5639 5640 5642 5644 5646 5649 5651 5654 5657 5660 5663 5666 5670 5672 5675 5679 5682 5684 5687 5690 5694 5696 5698 5700 5701 5702 5703 5703 5704 5704 5704 5703 5703 5702 5701 5700 5699 5698 5697 5695 5693 5690
5621 5623 5625 5627 5629 5631 5633 5635 5638 5642 5645 5648 5651 5654 5657 5660 5663 5666 5669 5672 5675 5679 5682 5685 5686 5687 5689 5690 5691 5691 5691 5691 5691 5691 5691 5690 5689 5688 5687 5686 5684 5682 5679
5605 5607 5609 5611 5614 5616 5618 5620 5623 5626 5629 5632 5635 5638 5641 5645 5648 5651 5654 5657 5660 5663 5668 5671 5673 5675 5675 5676 5677 5678 5678 5679 5679 5679 5679 5678 5678 5677 5676 5674 5673 5670 5668
5590 5592 5593 5596 5598 5601 5603 5605 5608 5610 5613 5616 5619 5622 5626 5629 5633 5636 5639 5642 5644 5647 5651 5657 5659 5661 5661 5662 5664 5664 5665 5666 5667 5667 5667 5666 5666 5665 5664 5663 5661 5659 5657
5575 5577 5579 5581 5584 5586 5588 5590 5592 5594 5597 5600 5603 5606 5610 5613 5617 5620 5623 5627 5629 5632 5635 5641 5644 5646 5648 5650 5651 5652 5652 5654 5655 5655 5655 5655 5654 5653 5652 5651 5650 5648 5646
5561 5562 5564 5566 5569 5571 5573 5575 5577 5579 5581 5585 5588 5591 5595 5598 5602 5605 5608 5611 5614 5617 5620 5625 5630 5632 5634 5636 5637 5639 5640 5641 5642 5643 5643 5643 5642 5642 5641 5640 5638 5636 5634
5548 5549 5550 5552 5554 5556 5559 5560 5562 5565 5567 5570 5573 5576 5580 5583 5587 5590 5593 5596 5600 5603 5606 5610 5614 5618 5620 5622 5624 5626 5627 5628 5629 5630 5630 5631 5630 5630 5629 5628 5626 5625 5623
5535 5536 5537 5538 5540 5542 5544 5546 5548 5551 5553 5556 5558 5562 5565 5569 5573 5576 5579 5583 5586 5589 5592 5596 5600 5603 5606 5608 5610 5612 5614 5615 5616 5617 5618 5618 5618 5618 5617 5617 5615 5613 5611
5522 5522 5524 5525 5527 5528 5530 5532 5534 5537 5539 5542 5544 5547 5551 5555 5558 5562 5566 5569 5572 5575 5579 5582 5586 5589 5593 5595 5597 5599 5600 5602 5603 5604 5605 5606 5606 5606 5605 5604 5603 5602 5600
5509 5510 5511 5512 5513 5515 5517 5518 5520 5523 5525 5528 5531 5535 5538 5542 5546 5549 5552 5555 5559 5562 5566 5569 5573 5576 5580 5582 5584 5585 5587 5588 5590 5593 5592 5593 5593 5593 5593 5593 5592 5590 5589
5498 5498 5499 5500 5502 5503 5504 5506 5508 5510 5513 5516 5519 5522 5526 5529 5533 5536 5539 5543 5546 5549 5553 5557 5560 5564 5567 5570 5571 5573 5574 5575 5577 5578 5578 5580 5580 5581 5582 5581 5580 5579 5578
5486 5487 5488 5489 5490 5491 5492 5494 5496 5498 5501 5504 5507 5510 5513 5517 5520 5523 5526 5530 5534 5538 5541 5544 5548 5552 5554 5556 5558 5560 5561 5562 5564 5565 5565 5567 5568 5569 5570 5570 5569 5568 5567
5476 5477 5477 5478 5479 5480 5481 5483 5484 5487 5490 5493 5496 5498 5502 5505 5508 5511 5514 5518 5522 5526 5529 5532 5536 5539 5542 5544 5545 5547 5548 5549 5552 5554 5554 5555 5557 5557 5558 5559 5558 5557 5556
5466 5466 5467 5467 5468 5470 5471 5472 5474 5476 5479 5482 5485 5487 5490 5493 5496 5498 5502 5506 5510 5515 5518 5521 5524 5527 5529 5532 5533 5535 5536 5538 5539 5542 5543 5543 5545 5545 5547 5548 5548 5547 5546